Location: Gebenbach
(49.5378°N, 11.8735°E)
Time: 03:32:33
(UTC+00:00)

USA 306 - Pass Details

Date: 29 October 2020
Orbit: 569 x 577 km, 54.0° (Epoch: 22 November)

Event Time Altitude Azimuth Distance (km) Brightness Sun altitude
Rises 17:56:31 0° 295° (WNW) 2,787 7.6 -20.2°
Reaches altitude 10° 17:58:51 10° 290° (WNW) 1,884 6.6 -20.6°
Maximum altitude 18:02:57 45° 217° (SW) 782 3.7 -21.2°
Enters shadow 18:04:26 32° 167° (SSE) 999 3.9 -21.5°
